Wetterdaten: Freitag, 30.12.2016
Datum Zeit Temp. A. Feuchte A. Luftdruck Regen Wind Richtung Richtung Sonnenschein Helligkeit Solar
30.12.2016 00:00 2,4 C 80 % 1037,0 hPa 0,0 l/m 12,5 km/h (2 Bft) S22.5 170 0 min 3,26 klux 0 W/m
30.12.2016 00:05 2,3 C 80 % 1037,0 hPa 0,0 l/m 11,8 km/h (2 Bft) S-SO22.5 165 0 min 3,26 klux 0 W/m
30.12.2016 00:11 2,3 C 80 % 1037,0 hPa 0,0 l/m 11,6 km/h (2 Bft) S22.5 170 0 min 3,26 klux 0 W/m
30.12.2016 00:16 2,3 C 80 % 1037,0 hPa 0,0 l/m 18,5 km/h (3 Bft) S-SO22.5 165 0 min 3,26 klux 0 W/m
30.12.2016 00:20 2,4 C 80 % 1037,0 hPa 0,0 l/m 14,6 km/h (3 Bft) S-SO22.5 165 0 min 3,26 klux 0 W/m
30.12.2016 00:25 2,3 C 80 % 1037,0 hPa 0,0 l/m 11,8 km/h (2 Bft) S-SO22.5 160 0 min 3,26 klux 0 W/m
30.12.2016 00:30 2,3 C 80 % 1037,0 hPa 0,0 l/m 16,8 km/h (3 Bft) S-SO22.5 165 0 min 3,26 klux 0 W/m
30.12.2016 00:35 2,3 C 80 % 1037,0 hPa 0,0 l/m 17,1 km/h (3 Bft) S-SO22.5 165 0 min 3,26 klux 0 W/m
30.12.2016 00:41 2,4 C 80 % 1037,0 hPa 0,0 l/m 19,0 km/h (3 Bft) S-SO22.5 165 0 min 3,26 klux 0 W/m
30.12.2016 00:45 2,4 C 80 % 1037,0 hPa 0,0 l/m 19,0 km/h (3 Bft) S-SO22.5 165 0 min 3,26 klux 0 W/m
30.12.2016 00:50 2,4 C 80 % 1037,0 hPa 0,0 l/m 11,7 km/h (2 Bft) S-SO22.5 165 0 min 3,26 klux 0 W/m
30.12.2016 00:55 2,3 C 80 % 1037,0 hPa 0,0 l/m 14,5 km/h (3 Bft) S22.5 170 0 min 3,26 klux 0 W/m
30.12.2016 01:00 2,3 C 80 % 1037,0 hPa 0,0 l/m 12,4 km/h (2 Bft) S22.5 170 0 min 3,26 klux 0 W/m
30.12.2016 01:05 2,2 C 80 % 1037,0 hPa 0,0 l/m 12,3 km/h (2 Bft) S-SO22.5 165 0 min 3,26 klux 0 W/m
30.12.2016 01:10 2,1 C 81 % 1037,0 hPa 0,0 l/m 10,4 km/h (2 Bft) S22.5 170 0 min 3,26 klux 0 W/m
30.12.2016 01:15 2,1 C 81 % 1037,0 hPa 0,0 l/m 12,6 km/h (3 Bft) S22.5 175 0 min 3,26 klux 0 W/m
30.12.2016 01:21 2,1 C 81 % 1037,0 hPa 0,0 l/m 14,5 km/h (3 Bft) S22.5 170 0 min 3,26 klux 0 W/m
30.12.2016 01:25 2,1 C 81 % 1037,0 hPa 0,0 l/m 18,4 km/h (3 Bft) S22.5 180 0 min 3,26 klux 0 W/m
30.12.2016 01:30 2,2 C 81 % 1037,0 hPa 0,0 l/m 15,1 km/h (3 Bft) S22.5 175 0 min 3,26 klux 0 W/m
30.12.2016 01:35 2,1 C 81 % 1037,0 hPa 0,0 l/m 12,0 km/h (2 Bft) S22.5 180 0 min 3,26 klux 0 W/m
30.12.2016 01:40 2,0 C 81 % 1037,0 hPa 0,0 l/m 12,0 km/h (2 Bft) S22.5 180 0 min 3,26 klux 0 W/m
30.12.2016 01:41 2,0 C 81 % 1037,0 hPa 0,0 l/m 12,0 km/h (2 Bft) S22.5 180 0 min 3,26 klux 0 W/m
30.12.2016 01:45 2,0 C 81 % 1037,0 hPa 0,0 l/m 11,7 km/h (2 Bft) S22.5 175 0 min 3,26 klux 0 W/m
30.12.2016 01:50 2,0 C 81 % 1037,0 hPa 0,0 l/m 13,3 km/h (3 Bft) S22.5 175 0 min 3,26 klux 0 W/m
30.12.2016 01:56 1,9 C 81 % 1037,0 hPa 0,0 l/m 12,3 km/h (2 Bft) S22.5 175 0 min 3,26 klux 0 W/m
30.12.2016 02:00 1,9 C 81 % 1037,0 hPa 0,0 l/m 10,8 km/h (2 Bft) S22.5 170 0 min 3,26 klux 0 W/m
30.12.2016 02:05 1,9 C 81 % 1037,0 hPa 0,0 l/m 10,8 km/h (2 Bft) S22.5 170 0 min 3,26 klux 0 W/m
30.12.2016 02:11 1,7 C 81 % 1037,0 hPa 0,0 l/m 11,8 km/h (2 Bft) S22.5 175 0 min 3,26 klux 0 W/m
30.12.2016 02:15 1,6 C 81 % 1037,0 hPa 0,0 l/m 10,0 km/h (2 Bft) S-SO22.5 165 0 min 3,26 klux 0 W/m
30.12.2016 02:20 1,6 C 81 % 1037,0 hPa 0,0 l/m 10,5 km/h (2 Bft) S22.5 175 0 min 3,26 klux 0 W/m
30.12.2016 02:25 1,5 C 81 % 1037,0 hPa 0,0 l/m 12,5 km/h (2 Bft) S22.5 175 0 min 3,26 klux 0 W/m
30.12.2016 02:30 1,5 C 82 % 1037,0 hPa 0,0 l/m 9,9 km/h (2 Bft) S22.5 180 0 min 3,26 klux 0 W/m
30.12.2016 02:36 1,5 C 82 % 1037,0 hPa 0,0 l/m 11,0 km/h (2 Bft) S22.5 180 0 min 3,26 klux 0 W/m
30.12.2016 02:41 1,4 C 82 % 1037,0 hPa 0,0 l/m 11,6 km/h (2 Bft) S22.5 175 0 min 3,26 klux 0 W/m
30.12.2016 02:45 1,3 C 82 % 1037,0 hPa 0,0 l/m 9,3 km/h (2 Bft) S22.5 175 0 min 3,26 klux 0 W/m
30.12.2016 02:50 1,2 C 82 % 1037,0 hPa 0,0 l/m 10,2 km/h (2 Bft) S22.5 170 0 min 3,26 klux 0 W/m
30.12.2016 02:55 1,2 C 82 % 1037,0 hPa 0,0 l/m 11,0 km/h (2 Bft) S22.5 170 0 min 3,26 klux 0 W/m
30.12.2016 03:00 1,2 C 83 % 1037,0 hPa 0,0 l/m 10,3 km/h (2 Bft) S22.5 170 0 min 3,26 klux 0 W/m
30.12.2016 03:05 1,2 C 83 % 1037,0 hPa 0,0 l/m 12,0 km/h (2 Bft) S22.5 180 0 min 3,26 klux 0 W/m
30.12.2016 03:10 1,1 C 83 % 1037,0 hPa 0,0 l/m 10,0 km/h (2 Bft) S22.5 185 0 min 3,26 klux 0 W/m
30.12.2016 03:15 1,1 C 83 % 1037,0 hPa 0,0 l/m 12,3 km/h (2 Bft) S22.5 180 0 min 3,26 klux 0 W/m
30.12.2016 03:21 1,0 C 83 % 1037,0 hPa 0,0 l/m 13,9 km/h (3 Bft) S-SO22.5 165 0 min 3,26 klux 0 W/m
30.12.2016 03:25 1,0 C 83 % 1036,0 hPa 0,0 l/m 13,9 km/h (3 Bft) S-SO22.5 165 0 min 3,26 klux 0 W/m
30.12.2016 03:30 1,0 C 83 % 1036,0 hPa 0,0 l/m 11,8 km/h (2 Bft) S45 170 0 min 3,26 klux 0 W/m
30.12.2016 03:35 0,9 C 83 % 1036,0 hPa 0,0 l/m 13,1 km/h (3 Bft) S22.5 170 0 min 3,26 klux 0 W/m
30.12.2016 03:40 0,9 C 83 % 1036,0 hPa 0,0 l/m 11,8 km/h (2 Bft) S22.5 170 0 min 3,26 klux 0 W/m
30.12.2016 03:46 0,8 C 83 % 1036,0 hPa 0,0 l/m 8,4 km/h (2 Bft) S 185 0 min 3,26 klux 0 W/m
30.12.2016 03:50 0,7 C 83 % 1036,0 hPa 0,0 l/m 7,1 km/h (2 Bft) S 175 0 min 3,26 klux 0 W/m
30.12.2016 03:55 0,7 C 83 % 1036,0 hPa 0,0 l/m 6,4 km/h (2 Bft) S22.5 170 0 min 3,26 klux 0 W/m
30.12.2016 04:00 0,7 C 83 % 1036,0 hPa 0,0 l/m 7,4 km/h (2 Bft) S22.5 180 0 min 3,26 klux 0 W/m
30.12.2016 04:06 0,6 C 83 % 1036,0 hPa 0,0 l/m 8,9 km/h (2 Bft) S 185 0 min 3,26 klux 0 W/m
30.12.2016 04:10 0,6 C 83 % 1036,0 hPa 0,0 l/m 11,3 km/h (2 Bft) S22.5 185 0 min 3,26 klux 0 W/m
30.12.2016 04:15 0,5 C 84 % 1036,0 hPa 0,0 l/m 9,6 km/h (2 Bft) S22.5 180 0 min 3,26 klux 0 W/m
30.12.2016 04:20 0,5 C 84 % 1036,0 hPa 0,0 l/m 7,2 km/h (2 Bft) S 180 0 min 3,26 klux 0 W/m
30.12.2016 04:26 0,4 C 84 % 1036,0 hPa 0,0 l/m 8,3 km/h (2 Bft) S22.5 185 0 min 3,26 klux 0 W/m
30.12.2016 04:31 0,4 C 84 % 1036,0 hPa 0,0 l/m 8,9 km/h (2 Bft) S 170 0 min 3,26 klux 0 W/m
30.12.2016 04:35 0,4 C 84 % 1036,0 hPa 0,0 l/m 9,9 km/h (2 Bft) S-SO22.5 160 0 min 3,26 klux 0 W/m
30.12.2016 04:40 0,3 C 84 % 1036,0 hPa 0,0 l/m 7,7 km/h (2 Bft) S-SO22.5 155 0 min 3,26 klux 0 W/m
30.12.2016 04:45 0,2 C 84 % 1036,0 hPa 0,0 l/m 7,7 km/h (2 Bft) S-SO22.5 155 0 min 3,26 klux 0 W/m
30.12.2016 04:50 0,2 C 84 % 1036,0 hPa 0,0 l/m 8,5 km/h (2 Bft) S22.5 170 0 min 3,26 klux 0 W/m
30.12.2016 04:56 0,2 C 85 % 1036,0 hPa 0,0 l/m 9,8 km/h (2 Bft) S22.5 170 0 min 3,26 klux 0 W/m
30.12.2016 05:00 0,2 C 85 % 1036,0 hPa 0,0 l/m 7,6 km/h (2 Bft) S 180 0 min 3,26 klux 0 W/m
30.12.2016 05:05 0,2 C 85 % 1036,0 hPa 0,0 l/m 9,5 km/h (2 Bft) S22.5 175 0 min 3,26 klux 0 W/m
30.12.2016 05:11 0,2 C 85 % 1036,0 hPa 0,0 l/m 11,7 km/h (2 Bft) S22.5 170 0 min 3,26 klux 0 W/m
30.12.2016 05:15 0,2 C 85 % 1037,0 hPa 0,0 l/m 9,9 km/h (2 Bft) S22.5 175 0 min 3,26 klux 0 W/m
30.12.2016 05:20 0,2 C 85 % 1036,0 hPa 0,0 l/m 11,0 km/h (2 Bft) S22.5 175 0 min 3,26 klux 0 W/m
30.12.2016 05:25 0,2 C 85 % 1036,0 hPa 0,0 l/m 11,5 km/h (2 Bft) S22.5 180 0 min 3,26 klux 0 W/m
30.12.2016 05:30 0,2 C 85 % 1036,0 hPa 0,0 l/m 9,2 km/h (2 Bft) S22.5 175 0 min 3,26 klux 0 W/m
30.12.2016 05:36 0,1 C 85 % 1036,0 hPa 0,0 l/m 7,0 km/h (2 Bft) S22.5 175 0 min 3,26 klux 0 W/m
30.12.2016 05:40 0,1 C 85 % 1036,0 hPa 0,0 l/m 10,6 km/h (2 Bft) S 180 0 min 3,26 klux 0 W/m
30.12.2016 05:45 0,1 C 85 % 1036,0 hPa 0,0 l/m 10,0 km/h (2 Bft) S22.5 180 0 min 3,26 klux 0 W/m
30.12.2016 05:50 0,1 C 85 % 1036,0 hPa 0,0 l/m 9,6 km/h (2 Bft) S 180 0 min 3,26 klux 0 W/m
30.12.2016 05:55 0,1 C 85 % 1036,0 hPa 0,0 l/m 9,8 km/h (2 Bft) S22.5 175 0 min 3,26 klux 0 W/m
30.12.2016 06:01 0,1 C 85 % 1036,0 hPa 0,0 l/m 10,0 km/h (2 Bft) S22.5 170 0 min 3,26 klux 0 W/m
30.12.2016 06:05 0,1 C 85 % 1037,0 hPa 0,0 l/m 7,0 km/h (2 Bft) S 175 0 min 3,26 klux 0 W/m
30.12.2016 06:10 0,1 C 85 % 1037,0 hPa 0,0 l/m 8,9 km/h (2 Bft) S22.5 175 0 min 3,26 klux 0 W/m
30.12.2016 06:16 0,1 C 85 % 1037,0 hPa 0,0 l/m 8,4 km/h (2 Bft) S22.5 170 0 min 3,26 klux 0 W/m
30.12.2016 06:21 0,1 C 85 % 1037,0 hPa 0,0 l/m 9,4 km/h (2 Bft) S22.5 175 0 min 3,26 klux 0 W/m
30.12.2016 06:25 0,1 C 85 % 1037,0 hPa 0,0 l/m 9,6 km/h (2 Bft) S22.5 180 0 min 3,26 klux 0 W/m
30.12.2016 06:30 0,1 C 86 % 1037,0 hPa 0,0 l/m 9,7 km/h (2 Bft) S22.5 170 0 min 3,26 klux 0 W/m
30.12.2016 06:35 0,0 C 86 % 1037,0 hPa 0,0 l/m 11,4 km/h (2 Bft) S22.5 170 0 min 3,26 klux 0 W/m
30.12.2016 06:40 0,0 C 86 % 1037,0 hPa 0,0 l/m 9,4 km/h (2 Bft) S 175 0 min 3,26 klux 0 W/m
30.12.2016 06:46 0,0 C 86 % 1037,0 hPa 0,0 l/m 9,3 km/h (2 Bft) S22.5 180 0 min 3,26 klux 0 W/m
30.12.2016 06:50 -0,2 C 86 % 1037,0 hPa 0,0 l/m 9,6 km/h (2 Bft) S22.5 180 0 min 3,26 klux 0 W/m
30.12.2016 06:55 -0,2 C 86 % 1037,0 hPa 0,0 l/m 8,9 km/h (2 Bft) S22.5 185 0 min 3,26 klux 0 W/m
30.12.2016 07:00 -0,2 C 86 % 1037,0 hPa 0,0 l/m 11,6 km/h (2 Bft) S22.5 175 0 min 3,26 klux 0 W/m
30.12.2016 07:05 -0,3 C 86 % 1037,0 hPa 0,0 l/m 9,3 km/h (2 Bft) S 180 0 min 3,26 klux 0 W/m
30.12.2016 07:10 -0,3 C 86 % 1037,0 hPa 0,0 l/m 8,5 km/h (2 Bft) S22.5 175 0 min 3,26 klux 0 W/m
30.12.2016 07:15 -0,3 C 86 % 1037,0 hPa 0,0 l/m 8,9 km/h (2 Bft) S 180 0 min 3,26 klux 0 W/m
30.12.2016 07:20 -0,3 C 86 % 1036,0 hPa 0,0 l/m 7,4 km/h (2 Bft) S 170 0 min 3,26 klux 0 W/m
30.12.2016 07:26 -0,4 C 86 % 1037,0 hPa 0,0 l/m 8,7 km/h (2 Bft) S22.5 170 0 min 3,26 klux 0 W/m
30.12.2016 07:30 -0,4 C 86 % 1037,0 hPa 0,0 l/m 10,7 km/h (2 Bft) S22.5 180 0 min 3,26 klux 0 W/m
30.12.2016 07:35 -0,5 C 86 % 1036,0 hPa 0,0 l/m 10,6 km/h (2 Bft) S-SO22.5 165 0 min 3,26 klux 0 W/m
30.12.2016 07:40 -0,4 C 86 % 1036,0 hPa 0,0 l/m 11,6 km/h (2 Bft) S-SO22.5 165 0 min 3,26 klux 0 W/m
30.12.2016 07:45 -0,5 C 86 % 1036,0 hPa 0,0 l/m 11,6 km/h (2 Bft) S22.5 170 0 min 3,26 klux 0 W/m
30.12.2016 07:51 -0,5 C 86 % 1036,0 hPa 0,0 l/m 11,0 km/h (2 Bft) S22.5 170 0 min 3,26 klux 0 W/m
30.12.2016 07:56 -0,4 C 86 % 1037,0 hPa 0,0 l/m 10,3 km/h (2 Bft) S22.5 170 0 min 3,26 klux 0 W/m
30.12.2016 08:00 -0,4 C 86 % 1037,0 hPa 0,0 l/m 6,1 km/h (2 Bft) S 175 0 min 3,26 klux 0 W/m
30.12.2016 08:05 -0,5 C 86 % 1037,0 hPa 0,0 l/m 9,0 km/h (2 Bft) S22.5 180 0 min 3,26 klux 0 W/m
30.12.2016 08:11 -0,5 C 86 % 1037,0 hPa 0,0 l/m 9,8 km/h (2 Bft) S22.5 185 0 min 3,26 klux 0 W/m
30.12.2016 08:15 -0,5 C 86 % 1037,0 hPa 0,0 l/m 8,7 km/h (2 Bft) S22.5 170 0 min 3,26 klux 0 W/m
30.12.2016 08:20 -0,5 C 86 % 1037,0 hPa 0,0 l/m 7,6 km/h (2 Bft) S22.5 175 0 min 3,26 klux 0 W/m
30.12.2016 08:25 -0,6 C 86 % 1037,0 hPa 0,0 l/m 7,1 km/h (2 Bft) S 180 0 min 3,26 klux 0 W/m
30.12.2016 08:30 -0,6 C 86 % 1037,0 hPa 0,0 l/m 8,1 km/h (2 Bft) S 185 0 min 3,26 klux 0 W/m
30.12.2016 08:36 -0,6 C 86 % 1037,0 hPa 0,0 l/m 9,5 km/h (2 Bft) S 180 0 min 3,26 klux 0 W/m
30.12.2016 08:40 -0,6 C 86 % 1037,0 hPa 0,0 l/m 11,0 km/h (2 Bft) S-SO22.5 165 0 min 3,26 klux 0 W/m
30.12.2016 08:45 -0,6 C 86 % 1037,0 hPa 0,0 l/m 9,0 km/h (2 Bft) S-SO22.5 165 0 min 3,26 klux 0 W/m
30.12.2016 08:50 -0,6 C 86 % 1037,0 hPa 0,0 l/m 9,5 km/h (2 Bft) S22.5 175 0 min 3,26 klux 22 W/m
30.12.2016 08:55 -0,5 C 86 % 1037,0 hPa 0,0 l/m 10,3 km/h (2 Bft) S22.5 170 5 min 3,26 klux 22 W/m
30.12.2016 09:01 -0,5 C 86 % 1037,0 hPa 0,0 l/m 11,5 km/h (2 Bft) S22.5 170 6 min 3,26 klux 22 W/m
30.12.2016 09:05 -0,5 C 86 % 1037,0 hPa 0,0 l/m 9,3 km/h (2 Bft) S22.5 170 0 min 1,84 klux 13 W/m
30.12.2016 09:10 -0,5 C 86 % 1037,0 hPa 0,0 l/m 9,0 km/h (2 Bft) S22.5 170 0 min 2,15 klux 15 W/m
30.12.2016 09:16 -0,5 C 86 % 1037,0 hPa 0,0 l/m 10,7 km/h (2 Bft) S22.5 170 0 min 2,15 klux 15 W/m
30.12.2016 09:21 -0,5 C 86 % 1037,0 hPa 0,0 l/m 12,6 km/h (3 Bft) S22.5 175 0 min 2,58 klux 18 W/m
30.12.2016 09:25 -0,4 C 86 % 1037,0 hPa 0,0 l/m 11,6 km/h (2 Bft) S22.5 170 0 min 2,97 klux 20 W/m
30.12.2016 09:30 -0,4 C 86 % 1037,0 hPa 0,0 l/m 12,0 km/h (2 Bft) S22.5 170 0 min 3,25 klux 22 W/m
30.12.2016 09:35 -0,3 C 86 % 1037,0 hPa 0,0 l/m 12,6 km/h (3 Bft) S-SO22.5 165 0 min 3,38 klux 23 W/m
30.12.2016 09:41 -0,2 C 86 % 1037,0 hPa 0,0 l/m 13,5 km/h (3 Bft) S-SO22.5 165 0 min 3,81 klux 26 W/m
30.12.2016 09:46 0,0 C 87 % 1037,0 hPa 0,0 l/m 12,4 km/h (2 Bft) S-SO22.5 165 0 min 4,07 klux 28 W/m
30.12.2016 09:50 0,3 C 87 % 1037,0 hPa 0,0 l/m 11,5 km/h (2 Bft) S-SO22.5 165 0 min 4,30 klux 29 W/m
30.12.2016 09:55 0,7 C 86 % 1037,0 hPa 0,0 l/m 13,1 km/h (3 Bft) S-SO22.5 165 0 min 4,40 klux 30 W/m
30.12.2016 10:00 0,8 C 86 % 1037,0 hPa 0,0 l/m 11,8 km/h (2 Bft) S-SO22.5 165 0 min 4,40 klux 30 W/m
30.12.2016 10:05 1,1 C 85 % 1037,0 hPa 0,0 l/m 13,4 km/h (3 Bft) S-SO22.5 165 0 min 4,89 klux 33 W/m
30.12.2016 10:10 1,2 C 85 % 1037,0 hPa 0,0 l/m 14,1 km/h (3 Bft) S-SO22.5 165 0 min 4,89 klux 33 W/m
30.12.2016 10:15 1,2 C 84 % 1037,0 hPa 0,0 l/m 15,9 km/h (3 Bft) S-SO22.5 160 5 min 13,7 klux 94 W/m
30.12.2016 10:20 1,5 C 84 % 1037,0 hPa 0,0 l/m 15,3 km/h (3 Bft) S-SO22.5 165 5 min 20,8 klux 142 W/m
30.12.2016 10:25 1,7 C 84 % 1037,0 hPa 0,0 l/m 13,6 km/h (3 Bft) S-SO22.5 160 5 min 21,8 klux 149 W/m
30.12.2016 10:30 1,9 C 84 % 1037,0 hPa 0,0 l/m 13,1 km/h (3 Bft) S-SO22.5 165 5 min 22,6 klux 155 W/m
30.12.2016 10:35 1,9 C 83 % 1037,0 hPa 0,0 l/m 10,2 km/h (2 Bft) S22.5 170 5 min 23,2 klux 159 W/m
30.12.2016 10:40 2,2 C 83 % 1037,0 hPa 0,0 l/m 13,4 km/h (3 Bft) S-SO22.5 165 5 min 23,8 klux 163 W/m
30.12.2016 10:46 2,4 C 83 % 1037,0 hPa 0,0 l/m 12,1 km/h (2 Bft) S22.5 175 6 min 24,6 klux 168 W/m
30.12.2016 10:50 2,5 C 83 % 1037,0 hPa 0,0 l/m 12,6 km/h (3 Bft) S22.5 170 4 min 25,3 klux 173 W/m
30.12.2016 10:55 2,6 C 82 % 1036,0 hPa 0,0 l/m 14,5 km/h (3 Bft) S22.5 175 5 min 25,9 klux 177 W/m
30.12.2016 11:00 2,7 C 81 % 1036,0 hPa 0,0 l/m 10,6 km/h (2 Bft) S22.5 180 5 min 26,2 klux 179 W/m
30.12.2016 11:06 2,7 C 81 % 1036,0 hPa 0,0 l/m 15,4 km/h (3 Bft) S22.5 170 6 min 26,6 klux 182 W/m
30.12.2016 11:10 2,7 C 81 % 1036,0 hPa 0,0 l/m 14,8 km/h (3 Bft) S22.5 170 4 min 27,1 klux 185 W/m
30.12.2016 11:15 2,7 C 80 % 1036,0 hPa 0,0 l/m 15,6 km/h (3 Bft) S-SO22.5 165 5 min 27,8 klux 190 W/m
30.12.2016 11:20 2,9 C 80 % 1036,0 hPa 0,0 l/m 15,6 km/h (3 Bft) S-SO45 165 5 min 28,3 klux 194 W/m
30.12.2016 11:26 3,0 C 80 % 1036,0 hPa 0,0 l/m 16,2 km/h (3 Bft) S22.5 170 6 min 28,8 klux 197 W/m
30.12.2016 11:31 3,1 C 79 % 1036,0 hPa 0,0 l/m 16,5 km/h (3 Bft) S22.5 170 5 min 29,3 klux 200 W/m
30.12.2016 11:35 3,1 C 79 % 1036,0 hPa 0,0 l/m 16,0 km/h (3 Bft) S-SO22.5 160 4 min 29,6 klux 202 W/m
30.12.2016 11:40 3,4 C 78 % 1036,0 hPa 0,0 l/m 17,6 km/h (3 Bft) S-SO45 165 5 min 30,1 klux 206 W/m
30.12.2016 11:45 3,6 C 78 % 1036,0 hPa 0,0 l/m 13,6 km/h (3 Bft) S-SO22.5 165 5 min 30,2 klux 207 W/m
30.12.2016 11:50 3,8 C 77 % 1036,0 hPa 0,0 l/m 12,5 km/h (2 Bft) S22.5 170 5 min 30,6 klux 209 W/m
30.12.2016 11:56 3,8 C 76 % 1036,0 hPa 0,0 l/m 16,9 km/h (3 Bft) S-SO22.5 165 6 min 30,6 klux 209 W/m
30.12.2016 12:00 3,9 C 76 % 1036,0 hPa 0,0 l/m 12,1 km/h (2 Bft) S-SO22.5 160 4 min 30,9 klux 211 W/m
30.12.2016 12:06 4,1 C 76 % 1035,9 hPa 0,0 l/m 12,0 km/h (2 Bft) S22.5 185 6 min 31,2 klux 213 W/m
30.12.2016 12:10 4,2 C 76 % 1035,9 hPa 0,0 l/m 16,4 km/h (3 Bft) S22.5 180 4 min 31,5 klux 215 W/m
30.12.2016 12:15 4,3 C 75 % 1035,9 hPa 0,0 l/m 15,4 km/h (3 Bft) S22.5 175 5 min 31,5 klux 215 W/m
30.12.2016 12:20 4,3 C 75 % 1035,9 hPa 0,0 l/m 14,9 km/h (3 Bft) S45 175 5 min 31,7 klux 217 W/m
30.12.2016 12:25 4,4 C 75 % 1035,9 hPa 0,0 l/m 16,1 km/h (3 Bft) S-SO22.5 165 5 min 31,8 klux 218 W/m
30.12.2016 12:31 4,4 C 75 % 1035,9 hPa 0,0 l/m 8,3 km/h (2 Bft) S22.5 170 6 min 31,9 klux 218 W/m
30.12.2016 12:35 4,6 C 74 % 1035,9 hPa 0,0 l/m 12,6 km/h (3 Bft) S-SO22.5 160 4 min 31,7 klux 217 W/m
30.12.2016 12:40 4,7 C 74 % 1035,9 hPa 0,0 l/m 13,0 km/h (3 Bft) S-SO22.5 160 5 min 31,5 klux 215 W/m
30.12.2016 12:45 4,6 C 73 % 1035,9 hPa 0,0 l/m 12,5 km/h (2 Bft) S45 175 5 min 31,5 klux 215 W/m
30.12.2016 12:50 4,7 C 73 % 1035,9 hPa 0,0 l/m 10,6 km/h (2 Bft) S22.5 170 5 min 31,5 klux 215 W/m
30.12.2016 12:56 4,8 C 73 % 1035,9 hPa 0,0 l/m 14,1 km/h (3 Bft) S-SO22.5 165 6 min 31,5 klux 215 W/m
30.12.2016 13:00 4,9 C 73 % 1035,9 hPa 0,0 l/m 7,8 km/h (2 Bft) S22.5 175 4 min 31,4 klux 215 W/m
30.12.2016 13:05 5,2 C 73 % 1035,9 hPa 0,0 l/m 7,9 km/h (2 Bft) S-SO22.5 165 5 min 31,2 klux 213 W/m
30.12.2016 13:11 5,4 C 73 % 1035,9 hPa 0,0 l/m 7,1 km/h (2 Bft) S 185 6 min 31,0 klux 212 W/m
30.12.2016 13:15 5,5 C 73 % 1034,9 hPa 0,0 l/m 7,1 km/h (2 Bft) S22.5 185 4 min 30,5 klux 209 W/m
30.12.2016 13:20 5,8 C 73 % 1034,9 hPa 0,0 l/m 4,2 km/h (1 Bft) S 180 5 min 30,0 klux 205 W/m
30.12.2016 13:25 5,9 C 73 % 1034,9 hPa 0,0 l/m 4,6 km/h (1 Bft) S 180 5 min 30,0 klux 205 W/m
30.12.2016 13:30 6,2 C 73 % 1034,9 hPa 0,0 l/m 7,3 km/h (2 Bft) S 185 5 min 29,7 klux 203 W/m
30.12.2016 13:36 6,2 C 72 % 1034,9 hPa 0,0 l/m 6,8 km/h (2 Bft) S-SW 195 6 min 29,3 klux 200 W/m
30.12.2016 13:40 6,1 C 72 % 1034,9 hPa 0,0 l/m 5,4 km/h (2 Bft) S-SW 195 4 min 29,3 klux 200 W/m
30.12.2016 13:45 6,4 C 72 % 1034,9 hPa 0,0 l/m 8,3 km/h (2 Bft) S-SW 195 5 min 28,9 klux 198 W/m
30.12.2016 13:50 6,3 C 70 % 1034,9 hPa 0,0 l/m 4,2 km/h (1 Bft) S 190 5 min 28,9 klux 198 W/m
30.12.2016 13:55 5,9 C 70 % 1034,9 hPa 0,0 l/m 0,8 km/h (0 Bft) S 190 5 min 28,9 klux 198 W/m
30.12.2016 14:01 5,6 C 70 % 1034,9 hPa 0,0 l/m 4,3 km/h (1 Bft) S 190 6 min 28,9 klux 198 W/m
30.12.2016 14:05 5,5 C 71 % 1034,9 hPa 0,0 l/m 4,8 km/h (1 Bft) S 190 4 min 28,9 klux 198 W/m
30.12.2016 14:10 5,4 C 72 % 1034,9 hPa 0,0 l/m 7,8 km/h (2 Bft) S-SW22.5 205 5 min 28,9 klux 198 W/m
30.12.2016 14:16 5,3 C 72 % 1034,9 hPa 0,0 l/m 7,8 km/h (2 Bft) W-SW22.5 240 6 min 28,9 klux 198 W/m
30.12.2016 14:20 5,2 C 72 % 1034,9 hPa 0,0 l/m 7,7 km/h (2 Bft) SW 230 4 min 23,7 klux 162 W/m
30.12.2016 14:25 5,1 C 73 % 1034,9 hPa 0,0 l/m 10,4 km/h (2 Bft) SW22.5 230 0 min 15,2 klux 104 W/m
30.12.2016 14:30 5,1 C 73 % 1034,9 hPa 0,0 l/m 6,8 km/h (2 Bft) W-SW 240 0 min 15,2 klux 104 W/m
30.12.2016 14:35 4,9 C 73 % 1034,9 hPa 0,0 l/m 9,0 km/h (2 Bft) SW22.5 235 5 min 15,2 klux 104 W/m
30.12.2016 14:41 4,7 C 73 % 1034,9 hPa 0,0 l/m 9,8 km/h (2 Bft) SW22.5 230 6 min 15,2 klux 104 W/m
30.12.2016 14:46 4,7 C 74 % 1034,9 hPa 0,0 l/m 9,4 km/h (2 Bft) SW22.5 230 5 min 15,5 klux 106 W/m
30.12.2016 14:50 4,7 C 74 % 1034,9 hPa 0,0 l/m 8,8 km/h (2 Bft) SW22.5 230 4 min 15,5 klux 106 W/m
30.12.2016 14:55 4,7 C 74 % 1034,9 hPa 0,0 l/m 8,3 km/h (2 Bft) SW 215 0 min 6,71 klux 46 W/m
30.12.2016 15:00 4,6 C 74 % 1034,9 hPa 0,0 l/m 5,6 km/h (2 Bft) S-SW 205 0 min 4,46 klux 31 W/m
30.12.2016 15:05 4,5 C 73 % 1034,9 hPa 0,0 l/m 11,5 km/h (2 Bft) S22.5 180 0 min 4,36 klux 30 W/m
30.12.2016 15:10 4,5 C 73 % 1034,9 hPa 0,0 l/m 8,0 km/h (2 Bft) S 185 0 min 4,10 klux 28 W/m
30.12.2016 15:15 4,3 C 73 % 1034,9 hPa 0,0 l/m 5,7 km/h (2 Bft) S 185 0 min 3,97 klux 27 W/m
30.12.2016 15:21 4,1 C 74 % 1034,9 hPa 0,0 l/m 5,5 km/h (2 Bft) S 185 0 min 3,78 klux 26 W/m
30.12.2016 15:26 4,1 C 74 % 1034,9 hPa 0,0 l/m 5,4 km/h (2 Bft) S 190 0 min 3,78 klux 26 W/m
30.12.2016 15:30 3,9 C 74 % 1034,9 hPa 0,0 l/m 5,4 km/h (2 Bft) S 185 0 min 3,78 klux 26 W/m
30.12.2016 15:35 3,9 C 74 % 1034,9 hPa 0,0 l/m 8,1 km/h (2 Bft) S 185 0 min 3,78 klux 26 W/m
30.12.2016 15:40 3,8 C 74 % 1035,0 hPa 0,0 l/m 6,3 km/h (2 Bft) S 190 0 min 2,97 klux 20 W/m
30.12.2016 15:46 3,8 C 74 % 1035,0 hPa 0,0 l/m 6,8 km/h (2 Bft) S 190 0 min 2,97 klux 20 W/m
30.12.2016 15:51 3,7 C 74 % 1035,0 hPa 0,0 l/m 4,5 km/h (1 Bft) S 190 0 min 2,97 klux 20 W/m
30.12.2016 15:55 3,6 C 74 % 1035,0 hPa 0,0 l/m 7,8 km/h (2 Bft) S 190 0 min 2,97 klux 20 W/m
30.12.2016 16:00 3,5 C 74 % 1035,0 hPa 0,0 l/m 6,3 km/h (2 Bft) S 190 0 min 2,97 klux 20 W/m
30.12.2016 16:06 3,5 C 74 % 1035,0 hPa 0,0 l/m 6,0 km/h (2 Bft) S 190 0 min 2,97 klux 20 W/m
30.12.2016 16:10 3,5 C 74 % 1035,0 hPa 0,0 l/m 7,8 km/h (2 Bft) S-SO22.5 165 4 min 2,97 klux 20 W/m
30.12.2016 16:16 3,4 C 74 % 1035,0 hPa 0,0 l/m 6,9 km/h (2 Bft) S-SO 160 6 min 2,97 klux 20 W/m
30.12.2016 16:20 3,3 C 74 % 1035,0 hPa 0,0 l/m 6,1 km/h (2 Bft) S-SO 155 4 min 2,97 klux 20 W/m
30.12.2016 16:25 3,1 C 74 % 1035,0 hPa 0,0 l/m 5,5 km/h (2 Bft) S-SO 150 0 min 2,97 klux 20 W/m
30.12.2016 16:30 3,1 C 75 % 1035,0 hPa 0,0 l/m 6,1 km/h (2 Bft) S-SO 160 0 min 675 lux 0 W/m
30.12.2016 16:35 3,1 C 75 % 1035,0 hPa 0,0 l/m 6,1 km/h (2 Bft) S-SO 165 0 min 675 lux 0 W/m
30.12.2016 16:41 3,0 C 75 % 1035,0 hPa 0,0 l/m 4,9 km/h (1 Bft) S-SO 165 0 min 675 lux 0 W/m
30.12.2016 16:45 2,8 C 75 % 1035,0 hPa 0,0 l/m 3,2 km/h (1 Bft) S-SO 165 0 min 215 lux 0 W/m
30.12.2016 16:50 2,8 C 75 % 1035,0 hPa 0,0 l/m 0,6 km/h (0 Bft) S-SO 165 0 min 169 lux 0 W/m
30.12.2016 16:55 2,3 C 75 % 1035,0 hPa 0,0 l/m 0,0 km/h (0 Bft) S-SO 165 0 min 169 lux 0 W/m
30.12.2016 17:00 1,7 C 75 % 1035,0 hPa 0,0 l/m 0,0 km/h (0 Bft) S-SO 165 0 min 169 lux 0 W/m
30.12.2016 17:05 1,5 C 76 % 1035,0 hPa 0,0 l/m 0,0 km/h (0 Bft) S-SO 165 0 min 169 lux 0 W/m
30.12.2016 17:10 1,3 C 76 % 1035,0 hPa 0,0 l/m 4,7 km/h (1 Bft) S-SO 165 0 min 169 lux 0 W/m
30.12.2016 17:15 1,2 C 76 % 1035,0 hPa 0,0 l/m 4,7 km/h (1 Bft) S-SO 165 0 min 169 lux 0 W/m
30.12.2016 17:21 1,2 C 76 % 1035,0 hPa 0,0 l/m 6,8 km/h (2 Bft) S 170 0 min 2 lux 0 W/m
30.12.2016 17:25 1,3 C 77 % 1035,0 hPa 0,0 l/m 4,8 km/h (1 Bft) S 170 0 min 2 lux 0 W/m
30.12.2016 17:30 1,3 C 77 % 1035,0 hPa 0,0 l/m 2,7 km/h (1 Bft) S 170 0 min 2 lux 0 W/m
30.12.2016 17:35 1,2 C 77 % 1035,0 hPa 0,0 l/m 0,3 km/h (0 Bft) S 170 0 min 2 lux 0 W/m
30.12.2016 17:40 1,2 C 77 % 1035,0 hPa 0,0 l/m 3,1 km/h (1 Bft) S 170 0 min 0 lux 0 W/m
30.12.2016 17:46 1,2 C 78 % 1035,0 hPa 0,0 l/m 5,3 km/h (1 Bft) S 170 0 min 0 lux 0 W/m
30.12.2016 17:50 1,5 C 78 % 1035,0 hPa 0,0 l/m 8,0 km/h (2 Bft) S 175 0 min 0 lux 0 W/m
30.12.2016 17:55 1,6 C 78 % 1035,0 hPa 0,0 l/m 6,8 km/h (2 Bft) S 180 0 min 0 lux 0 W/m
30.12.2016 18:00 1,6 C 78 % 1035,0 hPa 0,0 l/m 6,2 km/h (2 Bft) S 175 0 min 0 lux 0 W/m
30.12.2016 18:05 1,6 C 78 % 1035,0 hPa 0,0 l/m 9,4 km/h (2 Bft) S 175 0 min 0 lux 0 W/m
30.12.2016 18:10 1,6 C 78 % 1035,0 hPa 0,0 l/m 8,9 km/h (2 Bft) S 180 0 min 0 lux 0 W/m
30.12.2016 18:15 1,5 C 79 % 1035,0 hPa 0,0 l/m 8,3 km/h (2 Bft) S 180 0 min 0 lux 0 W/m
30.12.2016 18:20 1,5 C 79 % 1035,0 hPa 0,0 l/m 8,1 km/h (2 Bft) S 180 0 min 0 lux 0 W/m
30.12.2016 18:26 1,3 C 79 % 1035,0 hPa 0,0 l/m 9,5 km/h (2 Bft) S22.5 170 0 min 0 lux 0 W/m
30.12.2016 18:30 1,3 C 80 % 1035,0 hPa 0,0 l/m 8,9 km/h (2 Bft) S-SO22.5 165 0 min 0 lux 0 W/m
30.12.2016 18:35 1,4 C 80 % 1035,0 hPa 0,0 l/m 10,3 km/h (2 Bft) S22.5 170 0 min 0 lux 0 W/m
30.12.2016 18:40 1,4 C 80 % 1035,0 hPa 0,0 l/m 8,1 km/h (2 Bft) S 170 0 min 0 lux 0 W/m
30.12.2016 18:45 1,3 C 80 % 1035,0 hPa 0,0 l/m 8,9 km/h (2 Bft) S 180 0 min 0 lux 0 W/m
30.12.2016 18:51 1,3 C 80 % 1035,0 hPa 0,0 l/m 7,2 km/h (2 Bft) S 180 0 min 0 lux 0 W/m
30.12.2016 18:55 1,2 C 80 % 1035,0 hPa 0,0 l/m 5,0 km/h (1 Bft) S 180 0 min 0 lux 0 W/m
30.12.2016 19:00 1,2 C 80 % 1035,0 hPa 0,0 l/m 5,0 km/h (1 Bft) S 180 0 min 0 lux 0 W/m
30.12.2016 19:06 1,1 C 80 % 1035,0 hPa 0,0 l/m 5,9 km/h (2 Bft) S 180 0 min 0 lux 0 W/m
30.12.2016 19:10 1,0 C 80 % 1035,0 hPa 0,0 l/m 10,2 km/h (2 Bft) S 190 0 min 0 lux 0 W/m
30.12.2016 19:15 1,0 C 80 % 1035,0 hPa 0,0 l/m 7,9 km/h (2 Bft) S 190 0 min 0 lux 0 W/m
30.12.2016 19:20 0,9 C 80 % 1035,0 hPa 0,0 l/m 5,9 km/h (2 Bft) S 190 0 min 0 lux 0 W/m
30.12.2016 19:25 0,8 C 80 % 1035,0 hPa 0,0 l/m 6,6 km/h (2 Bft) S 190 0 min 0 lux 0 W/m
30.12.2016 19:31 0,7 C 81 % 1035,0 hPa 0,0 l/m 5,9 km/h (2 Bft) S 190 0 min 0 lux 0 W/m
30.12.2016 19:35 0,7 C 81 % 1035,0 hPa 0,0 l/m 6,2 km/h (2 Bft) S 190 0 min 0 lux 0 W/m
30.12.2016 19:40 0,5 C 81 % 1035,0 hPa 0,0 l/m 6,6 km/h (2 Bft) S 190 0 min 0 lux 0 W/m
30.12.2016 19:45 0,5 C 81 % 1035,0 hPa 0,0 l/m 8,9 km/h (2 Bft) S-SO 155 0 min 0 lux 0 W/m
30.12.2016 19:50 0,5 C 82 % 1035,0 hPa 0,0 l/m 8,9 km/h (2 Bft) S-SO 155 0 min 0 lux 0 W/m
30.12.2016 19:51 0,5 C 82 % 1035,0 hPa 0,0 l/m 8,9 km/h (2 Bft) S-SO 155 0 min 0 lux 0 W/m
30.12.2016 19:55 0,5 C 82 % 1035,0 hPa 0,0 l/m 10,0 km/h (2 Bft) S-SO22.5 150 0 min 0 lux 0 W/m
30.12.2016 20:01 0,6 C 82 % 1035,0 hPa 0,0 l/m 9,6 km/h (2 Bft) S-SO22.5 155 0 min 0 lux 0 W/m
30.12.2016 20:05 0,6 C 82 % 1035,0 hPa 0,0 l/m 9,2 km/h (2 Bft) S-SO22.5 150 0 min 0 lux 0 W/m
30.12.2016 20:10 0,6 C 82 % 1035,0 hPa 0,0 l/m 8,2 km/h (2 Bft) S-SO 155 0 min 0 lux 0 W/m
30.12.2016 20:16 0,6 C 82 % 1035,0 hPa 0,0 l/m 7,4 km/h (2 Bft) S-SO22.5 160 0 min 0 lux 0 W/m
30.12.2016 20:15 0,6 C 82 % 1035,0 hPa 0,0 l/m 7,4 km/h (2 Bft) S-SO22.5 160 0 min 0 lux 0 W/m
30.12.2016 20:21 0,5 C 82 % 1035,0 hPa 0,0 l/m 7,1 km/h (2 Bft) S-SO 165 0 min 0 lux 0 W/m
30.12.2016 20:26 0,4 C 82 % 1035,0 hPa 0,0 l/m 8,7 km/h (2 Bft) S-SO 165 0 min 0 lux 0 W/m
30.12.2016 20:30 0,4 C 82 % 1035,0 hPa 0,0 l/m 7,4 km/h (2 Bft) S-SO 165 0 min 0 lux 0 W/m
30.12.2016 20:35 0,4 C 82 % 1035,0 hPa 0,0 l/m 6,7 km/h (2 Bft) S-SO 155 0 min 0 lux 0 W/m
30.12.2016 20:40 0,4 C 82 % 1035,0 hPa 0,0 l/m 6,5 km/h (2 Bft) S-SO22.5 160 0 min 0 lux 0 W/m
30.12.2016 20:45 0,3 C 82 % 1035,0 hPa 0,0 l/m 8,3 km/h (2 Bft) S-SO 160 0 min 0 lux 0 W/m
30.12.2016 20:51 0,4 C 83 % 1035,0 hPa 0,0 l/m 7,5 km/h (2 Bft) S-SO22.5 160 0 min 0 lux 0 W/m
30.12.2016 20:55 0,4 C 83 % 1035,0 hPa 0,0 l/m 7,6 km/h (2 Bft) S-SO22.5 160 0 min 0 lux 0 W/m
30.12.2016 21:00 0,4 C 83 % 1035,0 hPa 0,0 l/m 11,3 km/h (2 Bft) S-SO22.5 165 0 min 0 lux 0 W/m
30.12.2016 21:06 0,5 C 83 % 1035,0 hPa 0,0 l/m 10,9 km/h (2 Bft) S-SO22.5 160 0 min 0 lux 0 W/m
30.12.2016 21:10 0,5 C 83 % 1035,0 hPa 0,0 l/m 11,1 km/h (2 Bft) S-SO22.5 160 0 min 0 lux 0 W/m
30.12.2016 21:15 0,5 C 83 % 1035,0 hPa 0,0 l/m 13,0 km/h (3 Bft) S-SO22.5 165 0 min 0 lux 0 W/m
30.12.2016 21:20 0,6 C 83 % 1035,0 hPa 0,0 l/m 12,2 km/h (2 Bft) S-SO22.5 160 0 min 0 lux 0 W/m
30.12.2016 21:26 0,6 C 83 % 1035,0 hPa 0,0 l/m 14,0 km/h (3 Bft) S-SO22.5 165 0 min 0 lux 0 W/m
30.12.2016 21:31 0,6 C 83 % 1035,0 hPa 0,0 l/m 15,9 km/h (3 Bft) S-SO22.5 165 0 min 0 lux 0 W/m
30.12.2016 21:35 0,6 C 83 % 1035,0 hPa 0,0 l/m 13,8 km/h (3 Bft) S-SO22.5 160 0 min 0 lux 0 W/m
30.12.2016 21:40 0,5 C 83 % 1035,0 hPa 0,0 l/m 14,1 km/h (3 Bft) S-SO22.5 160 0 min 0 lux 0 W/m
30.12.2016 21:45 0,5 C 83 % 1035,0 hPa 0,0 l/m 15,2 km/h (3 Bft) S-SO22.5 165 0 min 0 lux 0 W/m
30.12.2016 21:51 0,5 C 83 % 1035,0 hPa 0,0 l/m 16,3 km/h (3 Bft) S-SO22.5 165 0 min 0 lux 0 W/m
30.12.2016 21:55 0,5 C 83 % 1034,0 hPa 0,0 l/m 14,8 km/h (3 Bft) S-SO22.5 165 0 min 0 lux 0 W/m
30.12.2016 22:00 0,5 C 83 % 1034,0 hPa 0,0 l/m 16,1 km/h (3 Bft) S-SO22.5 165 0 min 0 lux 0 W/m
30.12.2016 22:06 0,5 C 83 % 1034,0 hPa 0,0 l/m 16,3 km/h (3 Bft) S-SO22.5 165 0 min 0 lux 0 W/m
30.12.2016 22:10 0,5 C 83 % 1034,0 hPa 0,0 l/m 14,7 km/h (3 Bft) S-SO22.5 165 0 min 0 lux 0 W/m
30.12.2016 22:15 0,5 C 83 % 1034,0 hPa 0,0 l/m 15,2 km/h (3 Bft) S22.5 170 0 min 0 lux 0 W/m
30.12.2016 22:20 0,5 C 83 % 1034,0 hPa 0,0 l/m 15,5 km/h (3 Bft) S22.5 170 0 min 0 lux 0 W/m
30.12.2016 22:25 0,4 C 83 % 1034,0 hPa 0,0 l/m 16,0 km/h (3 Bft) S22.5 170 0 min 0 lux 0 W/m
30.12.2016 22:31 0,4 C 83 % 1034,0 hPa 0,0 l/m 15,4 km/h (3 Bft) S-SO22.5 165 0 min 0 lux 0 W/m
30.12.2016 22:35 0,3 C 83 % 1034,0 hPa 0,0 l/m 13,2 km/h (3 Bft) S22.5 170 0 min 0 lux 0 W/m
30.12.2016 22:40 0,3 C 84 % 1034,0 hPa 0,0 l/m 12,0 km/h (2 Bft) S22.5 170 0 min 0 lux 0 W/m
30.12.2016 22:45 0,2 C 84 % 1034,0 hPa 0,0 l/m 9,6 km/h (2 Bft) S22.5 170 0 min 0 lux 0 W/m
30.12.2016 22:50 0,2 C 84 % 1034,0 hPa 0,0 l/m 10,0 km/h (2 Bft) S-SO22.5 160 0 min 0 lux 0 W/m
30.12.2016 22:56 0,1 C 84 % 1034,0 hPa 0,0 l/m 10,3 km/h (2 Bft) S-SO22.5 165 0 min 0 lux 0 W/m
30.12.2016 22:55 0,1 C 84 % 1034,0 hPa 0,0 l/m 10,3 km/h (2 Bft) S-SO22.5 165 0 min 0 lux 0 W/m
30.12.2016 23:00 0,0 C 84 % 1034,0 hPa 0,0 l/m 10,1 km/h (2 Bft) S-SO22.5 165 0 min 0 lux 0 W/m
30.12.2016 23:05 -0,2 C 84 % 1034,0 hPa 0,0 l/m 12,3 km/h (2 Bft) S-SO22.5 165 0 min 0 lux 0 W/m
30.12.2016 23:11 -0,2 C 84 % 1034,0 hPa 0,0 l/m 11,1 km/h (2 Bft) S-SO22.5 160 0 min 0 lux 0 W/m
30.12.2016 23:16 -0,2 C 84 % 1034,0 hPa 0,0 l/m 9,2 km/h (2 Bft) S22.5 170 0 min 0 lux 0 W/m
30.12.2016 23:20 -0,3 C 84 % 1034,0 hPa 0,0 l/m 7,9 km/h (2 Bft) S-SO22.5 160 0 min 0 lux 0 W/m
30.12.2016 23:25 -0,3 C 84 % 1034,0 hPa 0,0 l/m 8,2 km/h (2 Bft) S-SO22.5 165 0 min 0 lux 0 W/m
30.12.2016 23:30 -0,4 C 84 % 1034,0 hPa 0,0 l/m 7,4 km/h (2 Bft) S22.5 180 0 min 0 lux 0 W/m
30.12.2016 23:36 -0,5 C 84 % 1034,0 hPa 0,0 l/m 7,9 km/h (2 Bft) S 180 0 min 0 lux 0 W/m
30.12.2016 23:40 -0,5 C 84 % 1034,0 hPa 0,0 l/m 5,2 km/h (1 Bft) S 175 0 min 0 lux 0 W/m
30.12.2016 23:45 -0,6 C 84 % 1034,0 hPa 0,0 l/m 8,1 km/h (2 Bft) S 175 0 min 0 lux 0 W/m
30.12.2016 23:50 -0,6 C 84 % 1034,0 hPa 0,0 l/m 8,9 km/h (2 Bft) S 175 0 min 0 lux 0 W/m
30.12.2016 23:55 -0,7 C 84 % 1034,0 hPa 0,0 l/m 8,0 km/h (2 Bft) S22.5 175 0 min 0 lux 0 W/m
_ Min-Zeit 23:55 13:50 21:55 - 16:55 - - - - -
Minimum _ -0,7 C 70 % 1034,0 hPa - 0,0 km/h (0 Bft) - - - - -
_ Max-Zeit 13:45 09:46 08:25 00:00 00:41 - - 09:01 12:31 12:31
Maximum _ 6,4 C 87 % 1037,0 hPa 0,0 l/m 19,0 km/h
S-SO (3 Bft)
- - 6 min 31,9 klux 218 W/m
Durchschnitt _ 1,6 C 81 % 1035,8 hPa #0,0 l/m 9,9 km/h (2 Bft) S - #4:55 h 6,92 klux 122 W/m